When you browse on this site, cookies collect data to enhance your experience and personalize the content and advertising you see.
Visit our Privacy Policy to learn more. By continuing to use the site, you agree to this use of cookies and data.
  • In Lithuania
  • List of Countries
  • For 7 days
  • Water Temperature
  • Weather Map
  • Weather Widgets
  • user-avatar
    Login

    Hourly Weather Bratislava

    Today, 1 April, Wednesday

    Time Temperature Precipitation Wind Pressure Humidity
    00:00 -2°C° 0 mm 2 mps 756 mmHg 67%
    01:00 -2°C° 0 mm 2 mps 756 mmHg 72%
    02:00 -3°C° 0 mm 2 mps 755 mmHg 73%
    03:00 -3°C° 0 mm 2 mps 755 mmHg 74%
    04:00 -3°C° 0 mm 2 mps 754 mmHg 75%
    05:00 -2°C° 0 mm 2 mps 755 mmHg 72%
    06:00 -2°C° 0 mm 2 mps 755 mmHg 68%
    07:00 -1°C° 0 mm 2 mps 755 mmHg 64%
    08:00 +2°C° 0 mm 2 mps 754 mmHg 56%
    09:00 +4°C° 0 mm 2 mps 754 mmHg 49%
    10:00 +5°C° 0 mm 2 mps 754 mmHg 41%
    11:00 +7°C° 0 mm 1 mps 753 mmHg 38%
    12:00 +8°C° 0 mm 1 mps 753 mmHg 35%
    13:00 +9°C° 0 mm 1 mps 753 mmHg 32%
    14:00 +9°C° 0 mm 1 mps 752 mmHg 32%
    15:00 +9°C° 0 mm 1 mps 751 mmHg 32%
    16:00 +9°C° 0 mm 1 mps 750 mmHg 32%
    17:00 +7°C° 0 mm 1 mps 750 mmHg 36%
    18:00 +6°C° 0 mm 1 mps 750 mmHg 41%
    19:00 +4°C° 0 mm 1 mps 750 mmHg 45%
    20:00 +4°C° 0 mm 1 mps 750 mmHg 46%
    21:00 +2°C° 0 mm 2 mps 750 mmHg 47%
    22:00 +2°C° 0 mm 2 mps 750 mmHg 49%
    23:00 +1°C° 0 mm 2 mps 750 mmHg 50%

    Tomorrow, 2 April, Thursday

    Time Temperature Precipitation Wind Pressure Humidity
    00:00 +1°C° 0 mm 2 mps 750 mmHg 52%
    01:00 -1°C° 0 mm 2 mps 750 mmHg 53%
    02:00 -1°C° 0 mm 2 mps 750 mmHg 54%
    03:00 -1°C° 0 mm 2 mps 749 mmHg 55%
    04:00 -2°C° 0 mm 2 mps 749 mmHg 56%
    05:00 -1°C° 0 mm 2 mps 749 mmHg 54%
    06:00 +1°C° 0 mm 2 mps 749 mmHg 52%
    07:00 +1°C° 0 mm 2 mps 749 mmHg 50%
    08:00 +3°C° 0 mm 2 mps 749 mmHg 46%
    09:00 +4°C° 0 mm 3 mps 748 mmHg 42%
    10:00 +8°C° 0 mm 3 mps 748 mmHg 38%
    11:00 +9°C° 0 mm 3 mps 748 mmHg 37%
    12:00 +10°C° 0 mm 4 mps 748 mmHg 36%
    13:00 +11°C° 0 mm 4 mps 747 mmHg 35%
    14:00 +11°C° 0 mm 4 mps 747 mmHg 35%
    15:00 +11°C° 0 mm 4 mps 746 mmHg 36%
    16:00 +11°C° 0 mm 4 mps 745 mmHg 36%
    17:00 +9°C° 0 mm 3 mps 745 mmHg 42%
    18:00 +7°C° 0 mm 3 mps 745 mmHg 48%
    19:00 +4°C° 0 mm 3 mps 745 mmHg 54%
    20:00 +4°C° 0 mm 3 mps 745 mmHg 56%
    21:00 +3°C° 0 mm 3 mps 745 mmHg 58%
    22:00 +3°C° 0 mm 3 mps 745 mmHg 60%
    23:00 +3°C° 0 mm 2 mps 745 mmHg 64%

    Day after tomorrow, 3 April, Friday

    Time Temperature Precipitation Wind Pressure Humidity
    00:00 +3°C° 0 mm 2 mps 745 mmHg 68%
    01:00 +2°C° 0 mm 2 mps 745 mmHg 71%
    02:00 +2°C° 0 mm 2 mps 745 mmHg 73%
    03:00 +3°C° 0 mm 1 mps 745 mmHg 75%
    04:00 +2°C° 0 mm 1 mps 745 mmHg 77%
    05:00 +3°C° 0 mm 1 mps 746 mmHg 73%
    06:00 +4°C° 0 mm 1 mps 746 mmHg 70%
    07:00 +5°C° 0 mm 1 mps 746 mmHg 66%
    08:00 +6°C° 0 mm 2 mps 746 mmHg 60%
    09:00 +8°C° 0 mm 3 mps 746 mmHg 54%
    10:00 +10°C° 0 mm 3 mps 747 mmHg 49%
    11:00 +11°C° 0 mm 4 mps 747 mmHg 47%
    12:00 +12°C° 0 mm 4 mps 747 mmHg 46%
    13:00 +13°C° 0 mm 4 mps 747 mmHg 44%
    14:00 +13°C° 0 mm 4 mps 747 mmHg 45%
    15:00 +13°C° 0 mm 4 mps 747 mmHg 45%
    16:00 +13°C° 0 mm 4 mps 747 mmHg 46%
    17:00 +11°C° 0 mm 3 mps 747 mmHg 52%
    18:00 +9°C° 0 mm 2 mps 748 mmHg 58%
    19:00 +8°C° 0 mm 2 mps 748 mmHg 63%
    20:00 +8°C° 0 mm 1 mps 749 mmHg 65%
    21:00 +8°C° 0 mm 1 mps 749 mmHg 67%
    22:00 +7°C° 0 mm 1 mps 750 mmHg 68%
    23:00 +7°C° 0 mm 1 mps 750 mmHg 70%

    4 April, Saturday

    Time Temperature Precipitation Wind Pressure Humidity
    00:00 +6°C° 0 mm 2 mps 750 mmHg 72%
    01:00 +5°C° 0 mm 2 mps 751 mmHg 73%
    02:00 +5°C° 0 mm 2 mps 751 mmHg 75%
    03:00 +5°C° 0 mm 2 mps 751 mmHg 77%
    04:00 +4°C° 0 mm 2 mps 751 mmHg 79%
    05:00 +5°C° 0 mm 2 mps 752 mmHg 77%
    06:00 +5°C° 0 mm 2 mps 752 mmHg 76%
    07:00 +6°C° 0 mm 2 mps 753 mmHg 74%
    08:00 +8°C° 0 mm 3 mps 753 mmHg 69%
    09:00 +9°C° 0 mm 3 mps 753 mmHg 63%
    10:00 +11°C° 0 mm 3 mps 753 mmHg 57%
    11:00 +12°C° 0 mm 3 mps 754 mmHg 54%
    12:00 +13°C° 0 mm 3 mps 754 mmHg 50%
    13:00 +14°C° 0 mm 3 mps 754 mmHg 47%
    14:00 +13°C° 0 mm 3 mps 754 mmHg 48%
    15:00 +13°C° 0 mm 3 mps 754 mmHg 50%
    16:00 +13°C° 0 mm 3 mps 754 mmHg 51%
    17:00 +11°C° 0 mm 3 mps 754 mmHg 56%
    18:00 +9°C° 0 mm 3 mps 755 mmHg 62%
    19:00 +8°C° 0 mm 3 mps 755 mmHg 68%
    20:00 +7°C° 0 mm 3 mps 756 mmHg 69%
    21:00 +5°C° 0 mm 3 mps 756 mmHg 71%
    22:00 +5°C° 0 mm 3 mps 757 mmHg 73%
    23:00 +4°C° 0 mm 3 mps 757 mmHg 74%

    5 April, Sunday

    Time Temperature Precipitation Wind Pressure Humidity
    00:00 +4°C° 0 mm 2 mps 757 mmHg 74%
    01:00 +4°C° 0 mm 2 mps 758 mmHg 75%
    02:00 +3°C° 0 mm 2 mps 758 mmHg 77%
    03:00 +3°C° 0 mm 2 mps 758 mmHg 79%
    04:00 +4°C° 0 mm 1 mps 758 mmHg 82%
    05:00 +5°C° 0 mm 1 mps 758 mmHg 79%
    06:00 +5°C° 0 mm 1 mps 758 mmHg 77%
    07:00 +6°C° 0 mm 1 mps 758 mmHg 75%
    08:00 +7°C° 0 mm 2 mps 758 mmHg 68%
    09:00 +9°C° 0 mm 2 mps 758 mmHg 62%
    10:00 +11°C° 0 mm 3 mps 758 mmHg 55%
    11:00 +12°C° 0 mm 3 mps 758 mmHg 52%
    12:00 +13°C° 0 mm 3 mps 758 mmHg 50%
    13:00 +14°C° 0 mm 4 mps 757 mmHg 47%
    14:00 +14°C° 0 mm 4 mps 757 mmHg 45%
    15:00 +14°C° 0 mm 4 mps 757 mmHg 43%
    16:00 +14°C° 0 mm 4 mps 756 mmHg 41%
    17:00 +13°C° 0 mm 3 mps 756 mmHg 49%
    18:00 +11°C° 0 mm 3 mps 756 mmHg 57%
    19:00 +9°C° 0 mm 3 mps 756 mmHg 65%
    20:00 +9°C° 0 mm 3 mps 757 mmHg 68%
    21:00 +8°C° 0 mm 3 mps 757 mmHg 71%
    22:00 +8°C° 0 mm 3 mps 758 mmHg 75%
    23:00 +7°C° 0 mm 3 mps 758 mmHg 75%

    6 April, Monday

    Time Temperature Precipitation Wind Pressure Humidity
    00:00 +7°C° 0 mm 3 mps 758 mmHg 75%
    01:00 +6°C° 0 mm 4 mps 757 mmHg 75%
    02:00 +5°C° 0 mm 4 mps 758 mmHg 76%
    03:00 +5°C° 0 mm 4 mps 758 mmHg 77%
    04:00 +5°C° 0 mm 4 mps 758 mmHg 79%
    05:00 +5°C° 0 mm 5 mps 758 mmHg 75%
    06:00 +6°C° 0 mm 5 mps 758 mmHg 72%
    07:00 +7°C° 0 mm 6 mps 758 mmHg 69%
    08:00 +8°C° 0 mm 7 mps 759 mmHg 62%
    09:00 +10°C° 0 mm 8 mps 759 mmHg 55%
    10:00 +12°C° 0 mm 8 mps 759 mmHg 48%
    11:00 +12°C° 0 mm 8 mps 759 mmHg 46%
    12:00 +13°C° 0 mm 8 mps 759 mmHg 45%
    13:00 +15°C° 0 mm 8 mps 758 mmHg 43%
    14:00 +15°C° 0 mm 8 mps 758 mmHg 44%
    15:00 +15°C° 0 mm 8 mps 758 mmHg 44%
    16:00 +15°C° 0 mm 8 mps 758 mmHg 44%
    17:00 +12°C° 0 mm 7 mps 758 mmHg 48%
    18:00 +10°C° 0 mm 6 mps 758 mmHg 51%
    19:00 +9°C° 0 mm 5 mps 758 mmHg 55%
    20:00 +8°C° 0 mm 4 mps 758 mmHg 55%
    21:00 +7°C° 0 mm 4 mps 759 mmHg 54%
    22:00 +6°C° 0 mm 4 mps 759 mmHg 54%
    23:00 +5°C° 0 mm 4 mps 759 mmHg 54%
    Show more